EHI
0 0 0 0 0 0 0 0 0 0 0 0 0 0 0 0 0 0 0 0 0 0 0 0 0 0 0 0 0 0 0 0 0 0 0 0 0 0 0 0 0 0 0
0 0 0 0 0 0 0 0 0 0 0 0 0 0 0 0 0 0 0 0 0 0 0 0 0 0 0 0 0 0 0 0 0 0 0 0 0 0 0 0 0 0 0
0 0 0 0 0 0 0 0 0 0 0 0 0 0 0 0 0 0 0 0 0 0 0 0 0 0 0 0 0 0 0 0 0 0 0 0 0 0 0 0 0 0 0
0 0 0 0 0 0 0 0 0 0 0 0 0 0 0 0 0 0 0 0 0 0 0 0 0 0 0 0 0 0 0 0 0 0 0 0 0 0 0 0 0 0 0
0 0 0 0 0 0 0 0 0 0 0 0 0 0 0 0 0 0 0 0 0 0 0 0 0 0 0 0 0 0 0 0 0 0 0 0 0 0 0 0 0 0 0
0 0 0 0 0 0 0 0 0 0 0 0 0 0 0 0 0 0 0 0 0 0 0 0 0 0 0 0 0 0 0 0 0 0 0 0 0 0 0 0 0 0 0
0 0 0 0 0 0 0 0 0 0 0 0 0 0 0 0 0 0 0 0 0 0 0 0 0 0 0 0 0 0 0 0 0 0 0 0 0 0 0 0 0 0 0
0 0 0 0 0 0 0 0 0 0 0 0 0 0 0 0 0 0 0 0 0 0 0 0 0 0 0 0 0 0 0 0 0 0 0 0 0 0 0 0 0 0 0
0 0 0 0 0 0 0 0 0 0 0 0 0 0 0 0 0 0 0 0 0 0 0 0 0 0 0 0 0 0 0 0 0 0 0 0 0 0 0 0 0 0 0
0 0 0 0 0 0 0 0 0 0 0 0 0 0 0 0 0 0 0 0 0 0 0 0 0 0 0 0 0 0 0 0 0 0 0 0 0 0 0 0 0 0 0
0 0 0 0 0 0 0 0 0 0 0 0 0 0 0 0 0 0 0 0 0 0 0 0 0 0 0 0 0 0 0 0 0 0 0 0 0 0 0 0 0 0 0
0 0 0 0 0 0 0 0 0 0 0 0 0 0 0 0 0 0 0 0 0 0 0 0 0 0 0 0 0 0 0 0 0 0 0 0 0 0 0 0 0 0 0
0 0 0 0 0 0 0 0 0 0 0 0 0 0 0 0 0 0 0 0 0 0 0 0 0 0 0 0 0 0 0 0 0 0 0 0 0 0 0 0 0 0 0
0 0 0 0 0 0 0 0 0 0 0 0 0 0 0 0 0 0 0 0 0 0 0 0 0 0 0 0 0 0 0 0 0 0 0 0 0 0 0 0 0 0 0
0 0 0 0 0 0 0 0 0 0 0 0 0 0 0 0 0 0 0 0 0 0 0 0 0 0 0 0 0 0 0 0 0 0 0 0 0 0 0 0 0 0 0
0 0 0 0 0 0 0 0 0 0 0 0 0 0 0 0 0 0 0 0 0 0 0 0 0 0 0 0 0 0 0 0 0 0 0 0 0 0 0 0 0 0 0
0 0 0 0 0 0 0 0 0 0 0 0 0 0 0 0 0 0 0 0 0 0 0 0 0 0 0 0 0 0 0 0 0 0 0 0 0 0 0 0 0 0 0
0 0 0 0 0 0 0 0 0 0 0 0 0 0 0 0 0 0 0 0 0 0 0 0 0 0 0 0 0 0 0 0 0 0 0 0 0 0 0 0 0 0 0
0 0 0 0 0 0 0 0 0 0 0 0 0 0 0 0 0 0 0 0 0 0 0 0 0 0 0 0 0 0 0 0 0 0 0 0 0 0 0 0 0 0 0
0 0 0 0 0 0 0 0 0 0 0 0 0 0 0 0 0 0 0 0 0 0 0 0 0 0 0 0 0 0 0 0 0 0 0 0 0 0 0 0 0 0 0
0 0 0 0 0 0 0 0 0 0 0 0 0 0 0 0 0 0 0 0 0 0 0 0 0 0 0 0 0 0 0 0 0 0 0 0 0 0 0 0 0 0 0
0 0 0 0 0 0 0 0 0 0 0 0 0 0 0 0 0 0 0 0 0 0 0 0 0 0 0 0 0 0 0 0 0 0 0 0 0 0 0 0 0 0 0
0 0 0 0 0 0 0 0 0 0 0 0 0 0 0 0 0 0 0 0 0 0 0 0 0 0 0 0 0 0 0 0 0 0 0 0 0 0 0 0 0 0 0
0 0 0 0 0 0 0 0 0 0 0 0 0 0 0 0 0 0 0 0 0 0 0 0 0 0 0 0 0 0 0 0 0 0 0 0 0 0 0 0 0 0 0
0 0 0 0 0 0 0 0 0 0 0 0 0 0 0 0 0 0 0 0 0 0 0 0 0 0 0 0 0 0 0 0 0 0 0 0 0 0 0 0 0 0 0
0 0 0 0 0 0 0 0 0 0 0 0 0 0 0 0 0 0 0 0 0 0 0 0 0 0 0 0 0 0 0 0 0 0 0 0 0 0 0 0 0 0 0
Wind_Speed
7 5 6 5 4 4 5 4 4 3 3 3 2 2 2 2 2 3 4 4 4 3 3 2 3 3 3 3 3 2 2 1 1 1 1 2 3 4 4 4 4 5 5
5 7 7 6 5 4 5 5 5 4 3 2 2 1 0 1 1 2 3 5 5 4 3 3 2 2 3 4 3 2 2 1 1 2 2 2 3 2 3 3 3 4 4
9 8 8 7 5 5 6 6 5 5 3 3 2 2 2 2 2 3 2 3 3 3 3 3 2 2 2 2 2 2 3 2 2 2 2 2 1 3 3 2 2 3 3
8 6 6 7 7 7 6 7 6 5 4 3 3 3 2 1 2 1 2 2 2 2 2 3 2 1 1 2 2 2 2 2 1 1 1 2 2 1 3 3 3 3 4
7 6 7 7 7 7 6 6 6 5 4 3 3 3 2 2 1 1 2 2 1 1 1 2 2 1 1 1 2 2 2 2 3 2 1 1 1 2 2 3 4 4 4
7 5 6 6 6 6 5 5 5 4 4 3 3 3 3 2 2 2 2 2 2 2 3 3 2 1 1 2 2 3 4 3 3 3 3 3 3 3 3 4 3 4 4
9 6 7 8 7 7 7 5 5 5 3 3 2 2 2 2 2 2 1 1 1 2 4 3 3 2 3 3 3 3 4 4 5 5 4 4 4 4 3 3 3 3 3
12 10 9 7 7 8 8 7 7 6 4 3 2 2 2 1 1 1 1 2 1 1 3 4 3 3 3 3 3 3 4 4 5 6 5 4 5 4 4 4 3 2 3
18 14 10 8 8 8 8 8 8 6 5 5 6 6 5 4 4 4 3 3 2 3 4 4 3 3 3 3 2 2 3 3 5 6 6 4 4 4 4 4 4 4 4
17 15 11 9 9 8 7 7 8 7 7 8 8 7 6 4 3 3 3 3 3 3 3 4 4 4 4 3 2 2 3 4 5 4 5 5 4 4 4 4 4 4 4
17 16 14 12 12 10 9 7 6 6 7 8 9 8 5 3 3 3 3 3 3 3 4 4 5 5 5 4 3 4 4 5 5 5 5 6 5 4 4 3 3 3 3
17 18 18 17 15 13 10 6 5 6 7 7 9 8 4 3 3 3 2 2 3 3 4 5 5 5 5 5 5 5 4 4 5 5 5 6 4 5 3 3 3 2 3
16 18 20 20 17 13 3 5 6 7 7 7 10 7 3 2 2 2 2 2 3 3 4 4 5 5 6 5 4 3 2 2 3 3 3 3 2 2 1 1 1 1 1
13 15 17 16 14 11 7 7 6 5 7 9 7 4 2 1 2 2 2 3 3 3 4 4 5 5 5 3 1 3 4 5 6 7 7 6 5 3 2 1 1 1 1
11 10 11 11 11 10 9 7 6 5 6 6 4 3 2 1 2 2 2 3 4 4 4 4 4 4 5 7 8 7 8 8 9 9 9 9 12 14 9 6 4 2 1
10 7 6 6 7 8 7 7 6 5 3 2 2 1 1 2 2 2 3 4 4 4 4 5 7 8 8 13 15 11 9 9 9 8 8 8 10 13 13 13 12 10 6
11 8 7 5 4 1 2 3 4 4 3 3 4 4 4 4 4 4 5 5 4 4 5 6 6 8 10 14 14 15 8 7 7 6 6 6 8 9 6 9 11 11 13
13 11 9 8 5 3 2 1 2 3 4 5 6 5 5 5 5 4 5 4 3 4 4 5 6 6 9 14 14 13 7 5 5 6 5 5 6 8 9 7 6 5 7
14 11 7 5 3 1 2 3 4 5 6 6 6 6 5 5 4 3 4 4 4 4 4 4 5 6 8 13 12 10 4 4 5 5 6 7 6 12 15 10 8 7 6
12 7 4 6 5 3 4 5 5 5 5 6 6 6 5 4 4 4 3 4 4 4 4 4 4 5 6 11 11 9 3 3 3 3 5 10 11 13 15 9 7 7 8
8 3 7 6 5 4 5 6 5 4 5 6 5 6 6 4 4 3 3 4 3 3 3 3 3 4 6 9 10 9 3 3 3 3 4 5 14 15 15 11 5 10 11
0 7 8 7 6 5 5 5 4 4 4 4 4 4 5 5 5 4 4 4 4 3 2 2 2 3 4 7 8 9 8 7 3 4 4 6 15 15 14 9 11 15 11
4 8 9 9 7 6 6 5 4 5 4 4 4 4 5 5 5 4 3 3 3 2 2 2 2 3 3 5 9 8 9 10 4 3 8 11 14 12 9 11 14 11 6
7 8 9 9 7 6 5 4 4 5 4 4 4 4 4 4 5 3 3 2 3 2 2 2 2 3 3 4 5 2 3 6 6 3 6 10 11 9 10 10 8 6 6
8 8 8 9 7 5 5 5 5 5 4 3 3 3 4 3 3 3 3 3 2 3 2 2 3 3 3 6 10 4 3 3 4 4 3 4 5 5 6 6 6 6 6
11 10 10 8 6 5 5 5 6 5 5 4 3 3 3 3 3 3 4 6 6 8 8 8 7 6 7 11 11 9 10 10 10 5 3 4 5 5 6 7 7 7 7
Wind_Direction
246 218 196 172 158 143 116 101 87 63 66 58 44 29 11 356 13 22 31 31 32 36 45 41 32 35 52 60 76 103 105 108 150 137 298 293 259 246 248 243 249 248 239
253 219 194 182 182 155 136 125 119 114 112 126 138 137 104 325 331 346 32 33 29 27 35 41 48 63 74 61 55 62 86 55 45 113 100 9 353 341 268 253 250 262 267
255 224 197 191 187 180 170 159 154 144 136 132 121 94 71 33 7 354 1 8 19 26 30 33 52 89 111 109 94 88 100 71 16 40 93 101 315 319 327 351 323 296 275
285 238 206 191 196 199 185 168 164 160 155 138 126 131 139 172 229 274 305 327 16 33 30 23 32 74 113 126 135 129 132 121 74 25 75 153 170 193 322 324 331 320 292
299 250 221 210 211 205 192 180 172 171 161 151 146 144 164 207 243 273 298 314 336 24 56 31 22 40 120 168 181 169 174 172 167 173 171 150 171 186 192 282 311 315 292
311 250 228 225 225 218 210 193 185 186 165 154 159 173 187 214 240 258 276 302 332 357 21 10 359 333 273 241 231 219 205 199 200 197 182 174 179 197 193 221 259 282 290
308 269 236 229 226 219 217 210 206 206 185 176 177 180 189 206 240 259 258 328 9 5 0 1 330 301 279 271 256 246 244 221 210 209 208 202 204 194 188 199 240 263 284
327 294 262 243 235 228 221 214 216 211 182 168 131 92 97 116 115 90 99 73 45 7 0 352 327 305 286 267 243 235 244 231 229 228 219 212 218 200 193 195 201 258 287
337 313 288 266 248 240 233 221 219 207 167 141 115 92 83 85 89 83 79 69 42 30 18 356 336 319 308 297 273 244 253 238 231 233 230 226 232 215 207 202 191 201 252
332 327 311 293 280 263 249 231 217 192 157 138 127 114 100 95 100 94 77 61 32 8 346 331 319 314 313 317 309 276 266 257 251 235 229 233 233 223 211 205 204 200 215
329 326 319 308 292 275 253 227 194 157 136 125 116 106 94 90 83 73 53 32 10 350 328 309 302 302 302 307 302 284 272 260 263 257 238 242 233 218 213 200 195 201 197
327 326 320 312 300 281 254 204 158 132 116 112 103 90 82 86 82 69 43 18 2 347 324 311 304 300 298 295 284 280 282 275 272 274 262 255 243 223 209 192 193 193 198
326 329 328 323 316 301 246 131 114 109 105 101 90 89 91 85 69 39 7 358 356 344 328 322 314 304 294 284 273 261 305 336 335 332 311 292 253 225 165 153 162 200 226
330 338 340 342 347 358 34 64 71 88 96 88 95 116 126 85 44 5 348 355 357 345 329 316 304 296 294 300 18 73 62 49 42 38 32 29 38 40 39 32 334 303 295
326 337 343 347 355 4 13 32 42 46 76 101 124 142 147 82 48 22 19 10 0 350 331 326 346 5 25 49 56 50 50 45 39 35 29 32 33 29 24 16 8 356 311
305 310 321 334 348 355 359 10 23 22 29 80 109 113 72 45 24 16 25 14 357 350 7 33 39 33 36 56 61 58 47 42 37 32 26 27 27 17 10 1 357 355 345
286 264 249 235 227 239 348 1 2 359 5 24 34 26 16 3 360 21 31 14 5 27 46 38 39 31 23 42 55 58 55 42 32 27 26 23 15 9 345 352 3 355 342
285 262 239 227 217 201 170 87 27 12 19 23 20 10 3 354 354 32 36 14 26 49 58 43 39 32 17 28 42 54 50 41 24 13 17 13 355 345 353 359 356 348 341
283 267 231 194 170 142 87 76 48 26 18 11 6 1 355 350 2 42 41 35 46 48 57 46 37 31 8 12 21 44 37 29 14 6 5 1 342 338 348 351 341 340 329
284 264 156 129 124 106 97 86 59 33 9 353 351 353 351 359 36 50 53 57 58 52 56 51 36 26 7 4 5 18 33 11 359 1 3 353 339 337 342 341 341 329 314
296 130 121 117 111 105 102 89 66 27 349 343 355 2 358 14 46 45 46 48 57 59 53 50 30 14 9 2 1 11 23 27 11 358 347 331 338 340 337 342 336 314 328
268 124 118 107 84 74 83 79 52 358 343 358 14 14 15 18 34 37 42 41 38 39 22 21 21 358 348 351 349 6 7 16 26 345 324 325 341 344 347 346 331 338 350
146 129 122 108 86 66 65 62 20 352 355 18 25 29 31 23 17 27 35 33 25 17 356 357 1 335 327 326 335 352 357 353 352 324 338 345 349 351 348 342 351 358 350
116 115 112 102 86 67 50 36 12 3 5 16 19 35 28 19 7 8 22 26 360 336 340 343 327 307 302 302 295 283 331 345 333 346 354 353 349 351 346 348 349 345 328
81 84 85 83 74 58 40 21 16 13 7 20 25 33 32 11 2 5 357 351 310 308 324 284 281 292 292 299 322 353 338 333 319 20 13 353 346 344 340 336 335 333 326
61 66 68 71 62 47 34 16 12 19 11 18 27 22 15 355 2 1 351 338 328 333 338 330 323 308 307 314 330 343 342 346 354 25 353 341 336 332 329 328 326 323 320